When you browse on this site, cookies collect data to enhance your experience and personalize the content and advertising you see.
Visit our Privacy Policy to learn more. By continuing to use the site, you agree to this use of cookies and data.
  • In Czech Republic
  • List of Countries
  • For 7 days
  • Water Temperature
  • Satellite Maps
  • Weather Map
  • Weather Widgets
  • user-avatar
    Login

    Hourly Weather Wiktoria

    Today, 17 February, Sunday

    Time Temperature Precipitation Wind Pressure Humidity
    00:00 +21°C° 0 mm 4 mps 748 mmHg 65%
    01:00 +20°C° 0 mm 3 mps 748 mmHg 69%
    02:00 +20°C° 0 mm 3 mps 748 mmHg 70%
    03:00 +19°C° 0 mm 2 mps 748 mmHg 70%
    04:00 +19°C° 0 mm 2 mps 747 mmHg 71%
    05:00 +20°C° 0 mm 2 mps 747 mmHg 67%
    06:00 +20°C° 0 mm 2 mps 748 mmHg 62%
    07:00 +21°C° 0 mm 2 mps 748 mmHg 58%
    08:00 +24°C° 0 mm 1 mps 748 mmHg 49%
    09:00 +27°C° 0 mm 1 mps 747 mmHg 40%
    10:00 +29°C° 0 mm 2 mps 747 mmHg 30%
    11:00 +31°C° 0 mm 2 mps 747 mmHg 27%
    12:00 +33°C° 0 mm 3 mps 747 mmHg 24%
    13:00 +35°C° 0 mm 3 mps 746 mmHg 21%
    14:00 +35°C° 0 mm 3 mps 746 mmHg 20%
    15:00 +36°C° 0 mm 3 mps 745 mmHg 19%
    16:00 +36°C° 0 mm 3 mps 745 mmHg 19%
    17:00 +35°C° 0 mm 3 mps 745 mmHg 21%
    18:00 +32°C° 0 mm 2 mps 745 mmHg 24%
    19:00 +31°C° 0 mm 1 mps 745 mmHg 26%
    20:00 +29°C° 0 mm 2 mps 745 mmHg 29%
    21:00 +28°C° 0 mm 2 mps 744 mmHg 31%
    22:00 +27°C° 0 mm 2 mps 744 mmHg 34%
    23:00 +27°C° 0 mm 2 mps 744 mmHg 34%

    Tomorrow, 18 February, Monday

    Time Temperature Precipitation Wind Pressure Humidity
    00:00 +26°C° 0 mm 2 mps 744 mmHg 34%
    01:00 +26°C° 0 mm 2 mps 744 mmHg 35%
    02:00 +26°C° 0 mm 2 mps 744 mmHg 35%
    03:00 +26°C° 0 mm 2 mps 743 mmHg 35%
    04:00 +25°C° 0 mm 2 mps 743 mmHg 36%
    05:00 +25°C° 0 mm 2 mps 743 mmHg 37%
    06:00 +24°C° 0 mm 2 mps 743 mmHg 39%
    07:00 +24°C° 0 mm 2 mps 743 mmHg 40%
    08:00 +26°C° 0 mm 2 mps 743 mmHg 35%
    09:00 +29°C° 0 mm 3 mps 743 mmHg 31%
    10:00 +31°C° 0 mm 3 mps 743 mmHg 26%
    11:00 +30°C° 0.3 mm 3 mps 743 mmHg 31%
    12:00 +29°C° 0.3 mm 4 mps 743 mmHg 37%
    13:00 +27°C° 0.3 mm 5 mps 742 mmHg 42%
    14:00 +28°C° 0.1 mm 4 mps 742 mmHg 42%
    15:00 +28°C° 0.1 mm 2 mps 741 mmHg 41%
    16:00 +29°C° 0.1 mm 1 mps 741 mmHg 41%
    17:00 +28°C° 0 mm 2 mps 741 mmHg 42%
    18:00 +27°C° 0 mm 2 mps 741 mmHg 43%
    19:00 +27°C° 0 mm 3 mps 742 mmHg 44%
    20:00 +25°C° 0 mm 4 mps 743 mmHg 51%
    21:00 +22°C° 0 mm 6 mps 743 mmHg 58%
    22:00 +18°C° 0 mm 7 mps 744 mmHg 66%
    23:00 +18°C° 0 mm 7 mps 744 mmHg 66%

    Day after tomorrow, 19 February, Tuesday

    Time Temperature Precipitation Wind Pressure Humidity
    00:00 +17°C° 0 mm 7 mps 744 mmHg 66%
    01:00 +16°C° 0 mm 6 mps 745 mmHg 66%
    02:00 +15°C° 0 mm 6 mps 745 mmHg 67%
    03:00 +14°C° 0 mm 6 mps 745 mmHg 68%
    04:00 +14°C° 0 mm 6 mps 745 mmHg 70%
    05:00 +14°C° 0 mm 6 mps 745 mmHg 69%
    06:00 +14°C° 0 mm 6 mps 746 mmHg 69%
    07:00 +13°C° 0 mm 6 mps 746 mmHg 68%
    08:00 +15°C° 0 mm 6 mps 746 mmHg 60%
    09:00 +19°C° 0 mm 6 mps 746 mmHg 51%
    10:00 +21°C° 0 mm 6 mps 746 mmHg 43%
    11:00 +22°C° 0 mm 6 mps 746 mmHg 39%
    12:00 +24°C° 0 mm 6 mps 746 mmHg 35%
    13:00 +26°C° 0 mm 7 mps 746 mmHg 32%
    14:00 +26°C° 0 mm 7 mps 745 mmHg 32%
    15:00 +26°C° 0 mm 7 mps 745 mmHg 31%
    16:00 +26°C° 0 mm 7 mps 744 mmHg 31%
    17:00 +23°C° 0 mm 7 mps 745 mmHg 35%
    18:00 +22°C° 0 mm 7 mps 745 mmHg 39%
    19:00 +20°C° 0 mm 7 mps 746 mmHg 43%
    20:00 +18°C° 0 mm 7 mps 746 mmHg 47%
    21:00 +17°C° 0 mm 7 mps 747 mmHg 51%
    22:00 +15°C° 0 mm 6 mps 747 mmHg 55%
    23:00 +15°C° 0 mm 6 mps 747 mmHg 57%

    20 February, Wednesday

    Time Temperature Precipitation Wind Pressure Humidity
    00:00 +14°C° 0 mm 5 mps 747 mmHg 60%
    01:00 +13°C° 0 mm 5 mps 747 mmHg 62%
    02:00 +13°C° 0 mm 4 mps 747 mmHg 65%
    03:00 +12°C° 0 mm 4 mps 747 mmHg 67%
    04:00 +12°C° 0 mm 4 mps 747 mmHg 69%
    05:00 +12°C° 0 mm 4 mps 748 mmHg 69%
    06:00 +12°C° 0 mm 4 mps 748 mmHg 68%
    07:00 +12°C° 0 mm 4 mps 748 mmHg 68%
    08:00 +15°C° 0 mm 4 mps 748 mmHg 59%
    09:00 +18°C° 0 mm 4 mps 748 mmHg 51%
    10:00 +20°C° 0 mm 4 mps 748 mmHg 43%
    11:00 +22°C° 0 mm 4 mps 748 mmHg 37%
    12:00 +25°C° 0 mm 4 mps 747 mmHg 32%
    13:00 +26°C° 0 mm 4 mps 747 mmHg 26%
    14:00 +27°C° 0 mm 5 mps 746 mmHg 26%
    15:00 +27°C° 0 mm 5 mps 746 mmHg 26%
    16:00 +28°C° 0 mm 6 mps 745 mmHg 26%
    17:00 +26°C° 0 mm 6 mps 746 mmHg 30%
    18:00 +24°C° 0 mm 6 mps 746 mmHg 34%
    19:00 +22°C° 0 mm 6 mps 747 mmHg 39%
    20:00 +21°C° 0 mm 6 mps 747 mmHg 44%
    21:00 +19°C° 0 mm 6 mps 748 mmHg 49%
    22:00 +17°C° 0 mm 6 mps 748 mmHg 54%
    23:00 +17°C° 0 mm 6 mps 748 mmHg 58%

    21 February, Thursday

    Time Temperature Precipitation Wind Pressure Humidity
    00:00 +16°C° 0 mm 5 mps 749 mmHg 62%
    01:00 +15°C° 0 mm 5 mps 749 mmHg 66%
    02:00 +15°C° 0 mm 5 mps 749 mmHg 70%
    03:00 +14°C° 0 mm 4 mps 749 mmHg 73%
    04:00 +14°C° 0 mm 4 mps 749 mmHg 77%
    05:00 +14°C° 0 mm 4 mps 749 mmHg 77%
    06:00 +14°C° 0 mm 5 mps 749 mmHg 76%
    07:00 +14°C° 0 mm 5 mps 750 mmHg 76%
    08:00 +16°C° 0 mm 5 mps 750 mmHg 67%
    09:00 +20°C° 0 mm 5 mps 750 mmHg 57%
    10:00 +22°C° 0 mm 5 mps 751 mmHg 48%
    11:00 +23°C° 0 mm 5 mps 750 mmHg 44%
    12:00 +26°C° 0 mm 6 mps 750 mmHg 40%
    13:00 +27°C° 0 mm 6 mps 750 mmHg 36%
    14:00 +27°C° 0 mm 7 mps 749 mmHg 36%
    15:00 +27°C° 0 mm 7 mps 749 mmHg 35%
    16:00 +26°C° 0 mm 8 mps 749 mmHg 34%
    17:00 +24°C° 0 mm 8 mps 749 mmHg 38%
    18:00 +22°C° 0 mm 8 mps 750 mmHg 42%
    19:00 +20°C° 0 mm 8 mps 750 mmHg 46%
    20:00 +18°C° 0 mm 8 mps 751 mmHg 50%
    21:00 +17°C° 0 mm 8 mps 752 mmHg 54%
    22:00 +15°C° 0 mm 8 mps 752 mmHg 58%
    23:00 +15°C° 0 mm 7 mps 752 mmHg 60%

    22 February, Friday

    Time Temperature Precipitation Wind Pressure Humidity
    00:00 +14°C° 0 mm 6 mps 752 mmHg 62%
    01:00 +14°C° 0 mm 6 mps 752 mmHg 64%
    02:00 +13°C° 0 mm 5 mps 752 mmHg 66%
    03:00 +13°C° 0 mm 5 mps 752 mmHg 68%
    04:00 +12°C° 0 mm 4 mps 752 mmHg 70%
    05:00 +12°C° 0 mm 4 mps 753 mmHg 69%
    06:00 +13°C° 0 mm 4 mps 753 mmHg 68%
    07:00 +13°C° 0 mm 4 mps 754 mmHg 68%
    08:00 +17°C° 0 mm 3 mps 754 mmHg 61%
    09:00 +20°C° 0 mm 3 mps 754 mmHg 54%
    10:00 +24°C° 0 mm 2 mps 754 mmHg 48%
    11:00 +26°C° 0 mm 2 mps 754 mmHg 43%
    12:00 +28°C° 0 mm 1 mps 753 mmHg 39%
    13:00 +30°C° 0 mm 1 mps 753 mmHg 35%
    14:00 +30°C° 0 mm 1 mps 752 mmHg 33%
    15:00 +30°C° 0 mm 2 mps 752 mmHg 31%
    16:00 +31°C° 0 mm 2 mps 752 mmHg 29%
    17:00 +29°C° 0 mm 3 mps 752 mmHg 30%
    18:00 +28°C° 0 mm 3 mps 752 mmHg 31%
    19:00 +27°C° 0 mm 4 mps 753 mmHg 32%
    20:00 +25°C° 0 mm 4 mps 753 mmHg 37%
    21:00 +23°C° 0 mm 4 mps 754 mmHg 41%
    22:00 +21°C° 0 mm 4 mps 754 mmHg 45%
    23:00 +21°C° 0 mm 4 mps 754 mmHg 49%
    Show more